STARLINK-11350, 61540

Orbit data source: Space-Track

STARLINK-11350, 61540 is a payload satellite owned by SpaceX/Seattle (US) in LEO that was launched on Tue, 15 Oct 2024 UTC via an FALCON 9 launch vehicle from the Air Force Western Test Range (AFWTR). Payload-class satellites include a variety of spacecraft equipped with specific instruments for various scientific and technological missions. These include communications satellites like Starlink; space stations such as the ISS; scientific satellites like the Hubble; Earth observation satellites from companies like Planet Labs, Umbra, and HawkEye 360; GPS; miniature CubeSats for education and research; and military/defense satellites.

Loading next visibility...
Identifier
61540, 2024-184J
Orbit
LEO
Country
Flag of USUS
Related business
Manufacturer
SpaceX/Seattle
Mission
Operational Commercial Communications
Bus & Motor
STARLINK V2MD, Unknown motor
Mass
960 kg wet, ~910 kg dry
Launch date (UTC)
2024-10-15 (2 years ago)
Launch vehicle
FALCON 9
Launch site
Air Force Western Test Range (AFWTR)
Object type
Payload
Rocket body
Debris
Shape & HBR
Box + 2 Pan, 18.1 m
Radar Cross Section
36.964 m², Large (>1 m²)

Expand to show TLE details & history
Last TLE update: 22 hours ago

TLE from 22 hours ago
0 STARLINK-11350
1 61540U 24184J   26170.95109752 -.00001292  00000-0 -58000-5 0  9993
2 61540  53.1591  91.7859 0001119  90.7179 269.3967 15.69722703 96487
Epoch: 2026-06-19T22:49Z
TLE epoch observation values (Epoch: 2026-06-19T22:49:34.825Z)
Latitude
-0.00005°
Longitude
-158.78195°
Altitude
360.613 km
Speed
7.694 km/s
True Right ascension
06h 07m 08s
True Declination
0° 00' 00"
Sunlit
Object was in daylight at epoch
Visualization orbit readout
Latitude
Unknown
Longitude
Unknown
Altitude
Unknown
Speed
Unknown
Apparent Right ascension
Unknown
Apparent Declination
Unknown
Sunlit
N/A
Visualization observer readout
Local Sidereal Time
07:17:36
Azimuth
Unknown
Elevation
Unknown
Doppler factor
Unknown
Orbital elements
Apogee altitude
360.705 km
Perigee altitude
359.197 km
Semi-major axis
6,738.088 km
Eccentricity
0.00011
Inclination
53.1591°
RAAN
91.7859°
Arg. of periapsis
90.7179°
True anomaly
269.38388°
Mean anomaly
269.3967°
Eccentric anomaly
269.39029°
Mean motion
3.92408 °/min
Orbital period
91.74 mins
BSTAR
-0.0000058
Loading maneuver chart data...
Computing Atmospheric mass density...
Loading historical data...
Loading historical data...
Loading historical data...
Loading historical data...
Loading historical data...
Loading historical data...
Loading historical data...

Documentation

Showing up to 5 results
|